Content
SEND FEEDBACK

Daily
Averages
Monthly
Summary
United States of America

AGAT, GUAM


Home > North America > United States > Guam
Elevation: 110 meters     Latitude: 13 33N     Longitude: 144 50E

WEATHER
 
SELECT A DAY
Number of Records: 209,106;   Date Range: 1/1/95 - 8/12/14
 
SHARE

PRINT THIS DATA

[ ← Previous Day ]
WEATHER ALMANAC - 8 SEPTEMBER, 2013
[ Next Day → ]
[ °F ]   °C
Weather ElementAverageHighLow
Temperature28.2 °C31.1 °C (11:54 am)25 °C (1:54 am)
Dewpoint24.4 °C25.6 °C (7:54 am)23 °C (1:16 am)
Humidity80.5 %94 % (1:54 am)65 % (1:54 pm)
Barometer1011.5 hPa1013.2 hPa (1:06 am)1009.5 hPa (4:54 pm)
Wind Speed8.2 km/h16.7 km/h (6:19 pm)
Wind Gust25.9 km/h (1:06 am)
Weather ElementAverage
Visibility15.1 km
Wind DirectionE (90.4 °)

Weather ElementTotal
Precipitation8.64 mm
Cooling Degree Days9.7 (Base 18.3)
Growing Degree Days18.1 (Base 10)
Averaged from 28 records on 8 September, 2013
WEATHER CONDITIONS BREAKOUT
WIND DIRECTION BREAKOUT
WEATHER BY HOUR - 8 SEPTEMBER, 2013
[ °F ]   °C
Local TimeTemperatureDewpointHumidityBarometerVisibilityWind DirectionWind SpeedGust SpeedPrecipitationEventsConditions
1:06 AM26 °C24 °C89 %1013.2 hPa4 kmVariable5.6 km/h25.9 km/h0.76 mmRainHeavy Rain
1:16 AM26 °C23 °C83 %1012.9 hPa6.4 kmCalm2.79 mmRainLight Rain
1:54 AM25 °C23.9 °C94 %1011.5 hPa16.1 kmCalm2.79 mmClear
2:54 AM25.6 °C24.4 °C93 %1011.2 hPa16.1 kmCalmClear
3:54 AM25.6 °C23.9 °C90 %1011.2 hPa16.1 kmEast (100°)7.4 km/h0 mmPartly Cloudy
4:54 AM25 °C23.9 °C94 %1011.9 hPa11.3 kmCalm2.03 mmRainRain
5:54 AM25.6 °C24.4 °C93 %1011.9 hPa16.1 kmNorth (360°)5.6 km/h0.25 mmPartly Cloudy
6:54 AM25.6 °C23.9 °C90 %1011.9 hPa16.1 kmNE (50°)5.6 km/hClear
7:54 AM28.3 °C25.6 °C85 %1011.5 hPa16.1 kmESE (120°)5.6 km/hClear
8:54 AM28.9 °C25 °C79 %1011.5 hPa16.1 kmESE (120°)9.3 km/hPartly Cloudy
9:54 AM29.4 °C24.4 °C74 %1011.9 hPa16.1 kmESE (110°)13 km/hPartly Cloudy
10:54 AM29.4 °C24.4 °C74 %1011.5 hPa16.1 kmSE (130°)7.4 km/hPartly Cloudy
11:54 AM31.1 °C24.4 °C67 %1011.5 hPa16.1 kmESE (120°)9.3 km/hPartly Cloudy
12:54 PM30.6 °C23.9 °C67 %1010.8 hPa16.1 kmSE (140°)11.1 km/hPartly Cloudy
1:54 PM31.1 °C23.9 °C65 %1010.2 hPa16.1 kmESE (110°)14.8 km/hPartly Cloudy
2:54 PM30 °C23.9 °C70 %1010.2 hPa16.1 kmESE (120°)5.6 km/hScattered Clouds
3:54 PM30 °C25 °C74 %1009.8 hPa16.1 kmNorth (10°)7.4 km/hMostly Cloudy
4:12 PM30 °C25 °C74 %1010.5 hPa16.1 kmCalmScattered Clouds
4:36 PM30 °C25 °C74 %1010.5 hPa16.1 kmNorth (350°)11.1 km/hMostly Cloudy
4:54 PM30 °C25 °C74 %1009.5 hPa16.1 kmNNW (340°)9.3 km/hMostly Cloudy
5:54 PM29.4 °C25 °C77 %1010.2 hPa16.1 kmESE (110°)7.4 km/hMostly Cloudy
6:19 PM29 °C25 °C79 %1011.5 hPa16.1 kmNNE (30°)16.7 km/hMostly Cloudy
6:54 PM28.9 °C25 °C79 %1010.8 hPa16.1 kmNE (40°)13 km/hPartly Cloudy
7:54 PM27.8 °C24.4 °C82 %1011.5 hPa16.1 kmNE (40°)14.8 km/hPartly Cloudy
8:54 PM27.8 °C23.3 °C76 %1012.2 hPa16.1 kmNE (40°)11.1 km/hPartly Cloudy
9:54 PM27.8 °C24.4 °C82 %1012.5 hPa16.1 kmNNE (20°)11.1 km/hPartly Cloudy
10:54 PM27.8 °C25.6 °C88 %1012.2 hPa16.1 kmNE (40°)11.1 km/hPartly Cloudy
11:54 PM27.2 °C25 °C88 %1011.9 hPa16.1 kmNNE (30°)14.8 km/hPartly Cloudy
Hourly data recorded from PGUM, located 0 kilometers away from Agat, Guam







STORIES FROM OUR PARTNERS